This is the latest recevied weather packets stored in our database for station/object KC4GS-13. If no packets are shown the sender has not sent any weather packets the latest 10 day(s).
| Time | Temp. | Humidity | Pressure | Rain* | Wind** | Luminosity | Snow |
|---|---|---|---|---|---|---|---|
| 1788482980 | 30° C | 65% | 1017.3 hPa | 0 mm | - | 0 W/m² | - |
| 1788482676 | 30.56° C | 65% | 1017.4 hPa | 0 mm | - | 0 W/m² | - |
| 1788482376 | 30.56° C | 64% | 1017.2 hPa | 0 mm | - | 0 W/m² | - |
| 1788482072 | 30.56° C | 64% | 1017.1 hPa | 0 mm | - | 0 W/m² | - |
| 1788481767 | 30.56° C | 64% | 1017 hPa | 0 mm | - | 0 W/m² | - |
| 1788481464 | 30.56° C | 64% | 1017 hPa | 0 mm | - | 0 W/m² | - |
| 1788481162 | 31.11° C | 63% | 1016.9 hPa | 0 mm | - | 0 W/m² | - |
| 1788480857 | 31.11° C | 63% | 1017 hPa | 0 mm | - | 0 W/m² | - |
| 1788480552 | 31.67° C | 63% | 1016.7 hPa | 0 mm | - | 0 W/m² | - |
| 1788480252 | 31.67° C | 63% | 1016.9 hPa | 0 mm | - | 0 W/m² | - |
| 1788479947 | 31.67° C | 62% | 1016.5 hPa | 0 mm | - | 0 W/m² | - |
| 1788479643 | 31.67° C | 61% | 1016.4 hPa | 0 mm | - | 0 W/m² | - |
| 1788479342 | 32.22° C | 61% | 1016.5 hPa | 0 mm | - | 2 W/m² | - |
| 1788479039 | 32.22° C | 61% | 1016.5 hPa | 0 mm | - | 3 W/m² | - |
| 1788478734 | 32.78° C | 60% | 1016.3 hPa | 0 mm | - | 6 W/m² | - |
| 1788478431 | 32.78° C | 60% | 1016.4 hPa | 0 mm | - | 10 W/m² | - |
| 1788478129 | 32.78° C | 60% | 1016.3 hPa | 0 mm | - | 12 W/m² | - |
| 1788477825 | 33.33° C | 59% | 1016.3 hPa | 0 mm | - | 17 W/m² | - |
| 1788477524 | 33.33° C | 58% | 1016.2 hPa | 0 mm | - | 21 W/m² | - |
| 1788477220 | 33.89° C | 58% | 1016.3 hPa | 0 mm | - | 24 W/m² | - |
| 1788476915 | 33.89° C | 57% | 1016.3 hPa | 0 mm | - | 28 W/m² | - |
| 1788476610 | 33.89° C | 57% | 1016.1 hPa | 0 mm | - | 30 W/m² | - |
| 1788476307 | 33.89° C | 56% | 1016.2 hPa | 0 mm | - | 34 W/m² | - |
| 1788476002 | 34.44° C | 56% | 1016.2 hPa | 0 mm | - | 37 W/m² | - |
| 1788475699 | 34.44° C | 55% | 1016.3 hPa | 0 mm | - | 37 W/m² | - |
* Rain latest hour (hover to see other rain measurements)
** Current wind speed in m/s (hover to see current wind gust speed)